Tracking 19795 objects as of 20-Jul-2019
HD Live streaming from Space Station
objects crossing your sky now

NIMBUS 5

Track NIMBUS 5 now!
10-day predictions
NIMBUS 5 is classified as:


NORAD ID: 6305
Int'l Code: 1972-097A
Perigee: 1,095.0 km
Apogee: 1,107.2 km
Inclination: 100.0 °
Period: 107.1 minutes
Semi major axis: 7472 km
RCS: 3.4528 m2 (large)
Launch date: December 11, 1972
Source: United States (US)
Launch site: AIR FORCE WESTERN TEST RANGE (AFWTR)
aabbcc
Your satellite tracking list
Your tracking list is empty




NASA's NSSDC Master Catalog

Two Line Element Set (TLE):
1  6305U 72097A   19200.40964213 -.00000035  00000-0  16139-4 0  9993
2  6305  99.9528 107.0507 0008198 186.7168 285.7258 13.44127677285803
Source of the keplerian elements: AFSPC